Wind_Speed
40 39 40 41 44 46 48 50 51 48 46 47 43 42 35 37 41 41 41 42 42 44 43 42 43 46 49 52 52 48 48 49 50 53 57 62 67 69 73 74 73 73 73 74
38 38 39 40 42 43 45 47 46 47 46 47 45 41 40 37 36 41 44 43 42 39 39 41 44 47 49 46 44 46 48 51 55 59 62 63 64 71 70 68 68 68 69 69
36 37 38 40 41 43 44 46 47 47 47 47 48 44 42 37 37 38 40 40 37 37 38 40 43 43 40 40 43 48 52 55 60 60 60 62 64 60 59 61 62 64 64 65
38 38 39 41 43 44 44 44 45 45 46 47 46 45 38 35 32 33 32 31 32 35 37 39 38 36 36 37 43 50 55 57 56 55 58 56 51 49 52 56 59 63 66 68
37 39 40 40 38 39 39 38 37 37 37 42 41 43 36 34 28 29 27 28 31 32 33 31 31 32 34 42 48 51 53 51 53 53 51 46 45 49 50 56 60 65 68 71
33 36 37 36 35 34 32 30 33 33 35 38 35 35 33 30 28 24 24 26 27 26 25 26 29 31 37 42 47 46 46 46 42 39 38 43 44 45 51 57 63 65 66 64
32 31 33 33 35 34 33 34 36 38 36 33 31 30 24 28 27 19 23 21 19 19 21 23 24 28 33 42 41 40 36 36 33 35 39 40 41 45 53 62 58 54 51 51
29 31 32 31 30 29 29 31 33 36 35 32 32 28 19 24 16 20 15 13 13 18 19 20 21 26 33 33 33 32 32 32 34 35 36 36 40 46 56 52 43 38 33 34
29 30 31 29 27 28 30 33 32 31 33 33 26 24 18 12 16 13 8 10 15 18 18 18 18 24 26 28 30 32 34 33 33 31 30 35 40 47 56 40 29 27 25 25
28 30 29 28 27 28 30 29 25 23 21 15 10 9 12 11 10 5 8 12 12 13 15 16 17 20 21 27 29 29 31 35 36 32 30 33 39 45 52 35 21 23 22 19
29 29 27 28 27 28 28 25 22 15 11 8 6 9 10 8 5 6 7 6 8 10 13 15 16 19 19 25 28 30 29 33 36 35 30 31 37 42 50 41 26 17 14 12
28 30 26 27 27 27 26 22 17 11 9 5 7 10 9 7 5 3 3 5 5 9 10 10 11 15 15 23 26 28 29 30 31 33 32 29 34 35 39 44 37 18 18 14
27 27 27 26 26 26 27 23 18 12 7 8 10 8 8 9 6 3 2 3 3 5 8 11 10 10 15 19 24 27 28 29 28 30 32 29 29 30 32 32 33 11 12 12
28 24 26 27 27 25 25 20 16 12 9 11 11 11 13 9 6 3 1 3 3 5 8 13 12 14 17 21 24 26 30 33 33 29 31 30 25 25 27 31 29 24 18 17
26 23 25 27 25 25 24 17 11 10 10 11 14 15 14 11 7 4 3 6 7 7 10 11 12 14 17 20 22 25 27 30 34 37 33 30 26 22 23 24 27 24 21 23
27 25 25 25 26 23 22 16 11 13 13 15 16 18 14 12 9 7 5 3 4 4 6 9 12 14 17 19 22 23 25 27 29 34 36 35 29 26 21 22 24 24 21 17
28 26 24 24 23 22 21 15 14 15 15 16 19 18 17 14 11 9 6 6 5 4 3 4 8 11 14 17 20 23 25 25 25 26 31 33 35 30 25 22 21 20 18 15
28 27 22 22 22 19 17 15 17 16 17 19 22 20 19 15 14 11 9 7 5 4 6 8 9 12 15 17 19 21 23 26 27 25 25 26 29 32 33 28 23 20 19 17
27 26 21 20 19 18 17 15 18 16 18 21 24 24 21 18 15 12 10 7 4 2 4 7 10 13 16 19 21 23 24 24 25 27 27 25 24 25 27 28 30 26 22 20
27 25 21 20 18 16 15 13 20 18 20 22 26 26 24 21 18 15 12 10 7 4 5 7 10 13 15 17 20 22 24 24 23 22 23 25 26 24 23 23 24 25 26 26
27 25 21 19 19 15 13 14 19 21 20 21 28 27 26 25 22 20 17 15 12 11 10 11 13 15 16 18 19 20 22 24 24 24 23 21 21 21 23 21 20 19 19 19
25 24 19 19 18 16 14 14 15 23 24 24 28 31 31 30 28 26 24 22 20 19 18 17 17 18 20 20 21 23 24 24 24 24 24 23 23 22 20 19 19 19 19 18
23 21 19 18 16 16 16 14 15 15 25 28 27 32 36 35 34 33 31 30 28 27 25 24 24 24 24 25 25 26 27 27 27 26 24 24 23 22 22 22 21 19 17 15
19 17 17 18 17 17 17 15 15 15 17 26 32 29 33 37 40 38 37 36 35 34 32 30 30 31 31 29 29 30 29 29 28 28 27 25 25 24 23 23 23 22 21 20
16 15 15 16 15 17 16 14 16 15 14 16 22 33 32 35 38 41 43 43 42 40 39 37 36 36 37 35 33 35 34 30 31 30 28 25 25 26 25 24 24 23 24 24
17 17 15 15 14 16 16 16 14 14 12 9 9 20 28 39 36 36 40 43 45 45 44 41 40 40 40 38 35 35 36 32 32 31 28 26 26 27 27 27 26 26 25 25
Wind_Direction
288 286 284 284 281 281 279 279 279 281 278 276 277 279 279 276 279 276 275 277 276 276 274 277 283 285 285 286 287 286 284 284 283 287 290 290 289 288 287 285 281 278 276 273
289 288 289 286 284 283 283 281 280 277 276 275 275 276 280 280 278 275 274 274 273 274 276 281 283 285 285 285 284 284 285 286 289 291 291 290 289 289 284 279 276 274 273 272
291 292 291 289 287 285 284 282 279 277 275 275 275 275 277 280 281 275 273 273 274 277 282 284 284 284 283 286 292 293 293 292 293 291 291 292 292 285 281 280 279 278 275 272
292 292 294 293 288 285 282 281 279 277 276 275 274 274 272 277 278 273 269 270 277 281 283 283 283 283 287 295 298 299 297 294 294 294 295 291 287 286 285 283 281 280 277 274
294 298 298 294 288 283 282 280 280 280 281 276 273 274 267 275 269 265 268 274 279 283 283 281 283 289 292 299 301 300 297 296 295 298 295 292 291 289 287 288 286 283 279 277
297 300 299 291 289 288 287 283 282 282 288 283 279 277 265 277 266 265 275 277 284 282 281 285 291 293 300 302 303 302 303 302 300 300 301 299 295 294 295 292 287 288 289 284
297 303 301 296 294 292 286 286 287 287 291 285 280 281 285 275 261 270 278 284 281 284 289 292 306 309 304 310 317 313 310 309 308 308 307 305 302 302 303 299 308 301 285 274
297 305 304 302 297 291 289 290 289 284 287 285 279 288 278 264 267 272 281 274 287 295 295 300 308 303 310 331 341 342 337 327 318 311 312 313 313 316 305 322 311 291 289 283
297 304 308 308 300 297 295 294 290 281 280 279 283 283 258 258 267 277 273 285 296 300 298 300 294 305 326 332 341 347 349 340 334 331 326 324 322 319 316 337 313 307 302 290
293 305 310 310 303 305 304 301 291 289 290 291 283 208 254 262 265 283 280 292 300 298 301 296 299 309 331 339 339 340 349 352 351 343 333 331 329 322 329 348 324 308 308 298
293 305 311 310 303 308 306 299 291 293 309 311 182 236 242 234 241 269 287 298 305 312 304 304 306 319 339 343 343 342 346 349 354 355 344 341 344 333 334 357 356 331 342 337
294 304 308 311 305 309 314 302 285 272 278 224 222 214 203 200 219 219 292 312 311 332 351 340 322 334 346 352 0 356 356 355 356 358 356 349 357 352 352 355 10 42 52 52
293 302 307 308 307 316 315 303 279 246 211 218 208 204 186 179 180 184 310 328 323 355 15 23 20 15 10 9 9 10 8 5 1 2 1 358 7 4 4 5 15 16 45 20
292 302 304 311 311 315 323 309 278 220 213 211 204 193 181 172 173 176 49 41 53 48 52 49 45 38 22 19 16 16 16 18 15 7 8 7 12 18 17 23 25 32 6 351
292 299 304 309 310 314 321 304 257 213 218 209 205 192 176 175 173 157 122 100 83 66 53 42 25 26 18 13 10 10 13 13 15 19 16 15 12 25 27 24 27 28 29 32
291 295 300 303 309 309 311 301 231 218 217 215 201 182 175 179 180 166 173 114 74 50 34 23 23 19 15 13 10 8 10 11 14 15 20 25 21 19 30 34 40 43 39 40
289 293 294 297 303 304 311 304 225 219 217 214 196 183 185 185 183 173 156 125 99 73 57 39 19 12 13 9 11 14 10 8 13 16 18 21 29 29 25 31 39 50 51 55
285 290 292 293 300 303 305 293 227 223 217 210 193 192 191 189 190 178 168 147 121 84 57 37 26 17 9 3 360 359 4 10 9 9 14 20 26 29 35 34 33 41 53 56
279 284 287 286 293 298 298 276 229 228 229 213 198 200 197 195 196 192 185 174 159 88 26 24 16 11 8 4 2 1 358 358 4 7 9 13 18 24 30 33 40 41 36 41
274 278 281 281 289 296 292 268 235 223 233 223 208 208 206 205 206 206 205 207 212 242 297 330 343 347 350 354 355 355 353 352 351 352 0 7 11 17 20 25 31 35 39 46
268 271 276 274 281 287 292 281 254 235 243 231 219 218 218 219 219 221 225 232 240 252 271 294 309 320 325 331 336 341 343 343 344 344 344 346 355 4 11 17 21 26 31 35
262 265 267 268 277 290 287 282 272 251 238 237 228 225 225 228 230 233 237 242 247 257 266 277 289 298 304 312 318 322 328 331 332 333 334 336 336 338 345 353 3 12 19 23
256 260 260 266 269 270 275 277 285 276 251 235 237 235 231 235 237 240 243 246 250 255 262 270 279 286 290 298 304 310 317 320 319 320 322 324 328 331 330 332 334 338 346 354
253 257 259 258 261 267 274 275 276 276 264 249 241 244 242 242 245 248 249 252 256 260 263 269 276 281 286 291 296 301 307 308 307 311 315 317 317 319 321 322 322 321 322 324
252 255 258 260 267 268 271 282 280 284 283 273 260 252 251 250 252 252 255 257 259 262 265 268 272 277 282 286 291 295 299 303 302 307 311 312 310 309 311 311 310 310 311 313
252 256 266 269 269 271 273 278 277 278 260 261 272 261 255 250 253 256 259 262 264 266 267 269 272 276 279 284 288 291 293 299 302 305 306 304 302 300 301 304 305 305 306 305
Height
5692 5690 5687 5686 5683 5681 5679 5678 5676 5676 5673 5672 5672 5672 5673 5671 5668 5667 5666 5664 5664 5663 5662 5661 5660 5658 5655 5652 5648 5645 5641 5637 5634 5631 5626 5621 5615 5609 5604 5600 5597 5595 5592 5590
5683 5680 5678 5675 5672 5670 5668 5666 5665 5663 5661 5660 5660 5662 5660 5659 5659 5657 5655 5653 5653 5652 5652 5651 5650 5647 5643 5640 5637 5634 5630 5626 5621 5616 5611 5606 5600 5591 5584 5579 5577 5575 5572 5568
5674 5671 5668 5665 5662 5660 5657 5654 5652 5650 5649 5648 5647 5651 5651 5649 5647 5645 5644 5643 5642 5642 5642 5641 5639 5635 5633 5630 5627 5623 5617 5612 5606 5601 5596 5589 5581 5575 5569 5563 5559 5555 5552 5549
5665 5661 5658 5655 5652 5648 5646 5643 5640 5638 5636 5636 5637 5635 5642 5639 5637 5635 5635 5635 5634 5634 5633 5630 5628 5625 5623 5621 5616 5611 5604 5597 5591 5585 5578 5571 5565 5559 5552 5548 5542 5536 5530 5526
5655 5652 5648 5645 5641 5637 5635 5632 5630 5627 5625 5623 5626 5623 5631 5628 5628 5627 5627 5627 5626 5626 5623 5621 5619 5618 5616 5612 5605 5598 5591 5583 5577 5569 5563 5557 5551 5545 5538 5530 5523 5515 5508 5502
5646 5643 5639 5636 5632 5628 5625 5622 5621 5619 5617 5614 5616 5615 5618 5619 5619 5619 5619 5619 5619 5617 5615 5614 5613 5611 5608 5602 5595 5586 5577 5569 5563 5557 5551 5545 5537 5530 5522 5512 5501 5491 5484 5478
5640 5637 5631 5627 5623 5620 5617 5615 5612 5610 5608 5607 5608 5608 5611 5610 5610 5611 5612 5612 5611 5610 5609 5607 5606 5604 5600 5593 5584 5574 5566 5560 5553 5547 5540 5533 5526 5517 5505 5490 5479 5468 5460 5455
5632 5630 5626 5620 5616 5613 5611 5609 5606 5599 5599 5599 5600 5602 5602 5603 5603 5605 5606 5605 5605 5604 5602 5601 5599 5597 5593 5585 5576 5567 5559 5552 5545 5538 5531 5523 5515 5504 5490 5475 5463 5453 5446 5441
5624 5624 5619 5614 5610 5608 5604 5601 5598 5593 5592 5591 5593 5595 5596 5598 5599 5600 5600 5599 5599 5598 5596 5594 5593 5590 5586 5578 5572 5564 5556 5548 5539 5531 5523 5515 5506 5495 5477 5463 5452 5444 5438 5434
5619 5616 5613 5609 5605 5602 5597 5593 5590 5586 5585 5585 5587 5588 5592 5594 5595 5595 5594 5595 5595 5593 5591 5589 5587 5584 5580 5575 5568 5561 5553 5545 5535 5526 5517 5510 5500 5487 5468 5455 5443 5438 5433 5428
5612 5611 5609 5603 5599 5595 5591 5586 5583 5582 5582 5583 5586 5588 5589 5590 5591 5591 5591 5592 5591 5589 5586 5584 5582 5580 5576 5571 5565 5557 5549 5541 5532 5522 5514 5506 5496 5482 5465 5450 5440 5434 5431 5427
5607 5605 5601 5598 5594 5589 5585 5581 5578 5578 5582 5583 5584 5587 5586 5587 5588 5588 5589 5588 5587 5586 5583 5580 5578 5576 5572 5568 5562 5554 5546 5539 5530 5520 5511 5503 5494 5481 5468 5452 5443 5439 5436 5432
5602 5599 5595 5593 5590 5585 5581 5577 5575 5575 5579 5580 5581 5583 5583 5584 5585 5586 5586 5585 5584 5583 5581 5577 5575 5573 5569 5565 5560 5552 5545 5537 5529 5520 5509 5500 5493 5481 5471 5459 5451 5444 5439 5435
5595 5594 5591 5588 5583 5580 5576 5573 5571 5573 5575 5577 5578 5579 5581 5582 5583 5584 5583 5582 5582 5581 5580 5577 5574 5571 5568 5564 5559 5553 5546 5538 5529 5520 5510 5501 5493 5484 5474 5465 5457 5448 5443 5441
5590 5589 5586 5582 5579 5575 5573 5569 5568 5571 5572 5574 5575 5576 5577 5579 5580 5581 5581 5581 5580 5580 5578 5577 5574 5571 5567 5563 5558 5552 5546 5539 5531 5522 5512 5503 5495 5487 5478 5470 5462 5455 5450 5446
5583 5582 5582 5578 5575 5571 5568 5566 5565 5567 5568 5570 5572 5574 5576 5577 5577 5579 5580 5579 5579 5578 5577 5576 5573 5570 5566 5561 5557 5552 5546 5539 5532 5524 5516 5507 5498 5490 5483 5475 5468 5462 5456 5452
5576 5576 5576 5574 5571 5568 5565 5563 5562 5563 5565 5567 5570 5572 5573 5574 5576 5577 5578 5578 5577 5576 5575 5573 5571 5568 5565 5561 5556 5551 5546 5540 5533 5527 5519 5511 5503 5494 5487 5481 5475 5469 5463 5458
5570 5570 5571 5569 5566 5564 5561 5559 5559 5560 5562 5565 5568 5569 5571 5572 5574 5575 5576 5576 5575 5575 5573 5572 5569 5566 5563 5559 5555 5550 5546 5541 5535 5529 5522 5515 5508 5500 5493 5486 5481 5475 5471 5466
5563 5564 5564 5564 5562 5561 5558 5557 5557 5558 5561 5562 5565 5566 5569 5570 5572 5573 5574 5574 5573 5572 5571 5569 5567 5564 5561 5558 5554 5550 5546 5541 5536 5531 5525 5519 5512 5506 5499 5493 5487 5481 5476 5472
5556 5557 5559 5558 5557 5556 5554 5553 5554 5555 5558 5560 5562 5564 5566 5567 5569 5569 5570 5570 5569 5569 5568 5567 5565 5562 5560 5556 5553 5549 5546 5541 5537 5532 5527 5522 5516 5510 5505 5499 5494 5489 5484 5479
5549 5550 5551 5552 5551 5551 5550 5549 5550 5551 5558 5556 5559 5561 5563 5564 5565 5565 5565 5566 5565 5565 5564 5563 5561 5559 5557 5554 5551 5548 5544 5541 5537 5532 5528 5523 5519 5514 5510 5505 5500 5495 5491 5487
5543 5544 5545 5546 5545 5546 5545 5545 5546 5546 5548 5550 5552 5555 5557 5559 5559 5560 5560 5560 5560 5559 5559 5558 5557 5555 5552 5551 5548 5545 5542 5538 5534 5530 5527 5522 5518 5514 5511 5507 5503 5499 5495 5492
5536 5538 5539 5541 5541 5540 5539 5540 5540 5540 5541 5542 5544 5546 5549 5550 5552 5553 5553 5553 5553 5553 5552 5552 5551 5549 5547 5545 5542 5540 5538 5534 5530 5527 5524 5520 5516 5512 5509 5506 5503 5500 5497 5494
5530 5531 5533 5534 5534 5534 5534 5534 5534 5534 5534 5535 5537 5539 5541 5544 5544 5545 5546 5545 5545 5545 5545 5545 5544 5542 5540 5539 5536 5534 5532 5529 5526 5523 5520 5516 5513 5509 5506 5503 5500 5497 5495 5493
5525 5526 5527 5527 5528 5528 5528 5529 5528 5528 5528 5528 5528 5530 5531 5533 5534 5537 5536 5536 5536 5537 5536 5537 5536 5535 5532 5531 5530 5526 5524 5524 5520 5518 5515 5512 5509 5506 5503 5500 5496 5494 5491 5489
5519 5520 5522 5523 5523 5523 5523 5523 5523 5523 5523 5523 5522 5521 5521 5523 5524 5526 5526 5526 5526 5526 5526 5527 5526 5526 5524 5522 5521 5519 5516 5516 5514 5511 5508 5506 5503 5500 5497 5495 5492 5489 5487 5484